User: anonymous
Location: Unspecified
(0.0000°N, 0.0000°E)
Time: 04:22:22
(UTC+02:00)
Language:

Ariane 42L R/B - Orbit

View from above orbital plane
View from above orbital plane
View from above satellite
View from above satellite

Ground track
Ground track

The orbit data is extracted from the following two-line orbital elements,

1 26299U 00020B   14274.24343193  .00003908  00000-0  12305-2 0   700
2 26299 007.5137 062.5846 6056542 017.0684 339.4377 03.93298098178999
Epoch (UTC): 01 October 2014 05:50:32
Eccentricity: 0.6056542
inclination: 7.5137°
perigee height: 307 km
apogee height: 20843 km
right ascension of ascending node: 62.5846°
argument of perigee: 17.0684°
revolutions per day: 3.93298098
mean anomaly at epoch: 339.4377°
orbit number at epoch: 17899

The dashed part of the orbit path shows where the satellite is in the earth's shadow,  

DLR